M I D A S
Marine Information and Data Acquisition System
Tripno 2295 of the Zeeleeuw from 2012-04-24 10:33:03 to 2012-04-24 16:19:00
Back to CruiseResearch ActivitiesStationsMapUnderway DataData graphs

EquipmentUnitsComments
TimeDGPSUTC
LatitudeDGPSDM.mWGS84
LongitudeDGPSDM.mWGS84
SpeedMeteo Stationm/sRelative wind speed
DirectionMeteo StationdegRelative wind direction
TemperatureMeteo Stationdeg CelciusAir temperature
PressureMeteo StationPaAtmospheric pressure
HumidityMeteo Station%Relative humidity
Missing or incorrect values are displayed as -999
Metereological data collected by the RV Zeeleeuw from 2012-04-24 10:14:09 to 2012-04-24 16:22:50
Time Latitude Longitude Speed Direction Temperature Pressure Humidity
2012-04-24 10:15 51°13.636 2°56.018 0.1 54 9.5 99430 45
2012-04-24 10:16 51°13.636 2°56.018 1.5 55 9.5 99440 45
2012-04-24 10:17 51°13.637 2°56.018 1.5 78 9.4 99440 45
2012-04-24 10:18 51°13.636 2°56.018 2.1 40 9.4 99440 45
2012-04-24 10:19 51°13.637 2°56.018 1.4 37 9.3 99440 45
2012-04-24 10:20 51°13.636 2°56.019 1.6 31 9.3 99440 45
2012-04-24 10:21 51°13.636 2°56.019 0.1 35 9.3 99440 45
2012-04-24 10:22 51°13.637 2°56.019 1.9 37 9.3 99440 45
2012-04-24 10:23 51°13.637 2°56.019 2.3 58 9.3 99440 44
2012-04-24 10:24 51°13.637 2°56.018 1.8 33 9.4 99440 46
2012-04-24 10:25 51°13.635 2°56.018 1.4 50 9.4 99440 46
2012-04-24 10:26 51°13.636 2°56.017 2.4 56 9.6 99450 46
2012-04-24 10:27 51°13.636 2°56.017 3.2 39 9.6 99450 46
2012-04-24 10:28 51°13.635 2°56.018 0.1 270 9.7 99440 45
2012-04-24 10:29 51°13.635 2°56.018 2.1 31 9.8 99450 45
2012-04-24 10:30 51°13.636 2°56.018 2.9 56 9.8 99450 44
2012-04-24 10:31 51°13.636 2°56.017 2.8 34 9.7 99450 46
2012-04-24 10:32 51°13.636 2°56.018 0.4 53 9.6 99450 45
2012-04-24 10:33 51°13.636 2°56.017 2.7 33 9.6 99450 45
2012-04-24 10:34 51°13.635 2°56.015 3.4 40 9.7 99450 45
2012-04-24 10:35 51°13.654 2°55.941 5.1 32 9.7 99450 45
2012-04-24 10:36 51°13.687 2°55.824 4.9 39 9.6 99450 45
2012-04-24 10:37 51°13.75 2°55.718 5.7 52 9.8 99450 46
2012-04-24 10:38 51°13.828 2°55.635 5.8 37 9.6 99450 45
2012-04-24 10:39 51°13.897 2°55.604 4.9 38 9.7 99450 48
2012-04-24 10:40 51°13.95 2°55.624 4 38 9.4 99450 45
2012-04-24 10:41 51°13.971 2°55.64 2.8 7 9.3 99450 46
2012-04-24 10:42 51°13.997 2°55.567 4 328 9.2 99460 46
2012-04-24 10:43 51°14.11 2°55.448 7.6 329 9.2 99450 46
2012-04-24 10:44 51°14.252 2°55.309 8.5 329 9.2 99450 46
2012-04-24 10:45 51°14.406 2°55.151 8.3 325 9.2 99450 45
2012-04-24 10:46 51°14.56 2°54.964 8.5 326 9.2 99450 45
2012-04-24 10:47 51°14.715 2°54.77 8 302 9.2 99450 45
2012-04-24 10:48 51°14.868 2°54.572 7.1 304 9.3 99450 45
2012-04-24 10:49 51°15.043 2°54.458 8 309 9.3 99450 46
2012-04-24 10:50 51°15.216 2°54.535 6 303 9.3 99450 45
2012-04-24 10:51 51°15.359 2°54.716 6.3 284 9.2 99460 45
2012-04-24 10:52 51°15.519 2°54.865 6.7 302 9.2 99460 44
2012-04-24 10:53 51°15.681 2°55.015 5.6 281 9.1 99460 44
2012-04-24 10:54 51°15.814 2°55.225 6 302 9 99460 45
2012-04-24 10:55 51°15.952 2°55.425 6.2 303 9.1 99450 45
2012-04-24 10:56 51°16.102 2°55.604 5.7 302 9 99460 44
2012-04-24 10:57 51°16.243 2°55.798 5.4 304 9 99460 44
2012-04-24 10:58 51°16.376 2°56.003 5 307 9 99460 45
2012-04-24 10:59 51°16.467 2°56.254 0.5 303 9 99460 44
2012-04-24 11:00 51°16.552 2°56.524 5.7 305 9.1 99460 45
2012-04-24 11:01 51°16.666 2°56.762 5.5 307 9.1 99460 45
2012-04-24 11:02 51°16.79 2°56.991 5.7 301 9.1 99450 45
2012-04-24 11:03 51°16.888 2°57.251 4 303 9.1 99460 44
2012-04-24 11:04 51°16.974 2°57.522 6.1 303 9.1 99470 44
2012-04-24 11:05 51°17.072 2°57.78 4.6 309 9.1 99460 44
2012-04-24 11:06 51°17.158 2°58.047 2.5 307 9.1 99460 44
2012-04-24 11:07 51°17.259 2°58.299 5.1 286 9.1 99460 45
2012-04-24 11:08 51°17.348 2°58.562 5.3 280 9.2 99460 44
2012-04-24 11:09 51°17.459 2°58.794 5.6 304 9.2 99460 44
2012-04-24 11:10 51°17.588 2°59.005 4.8 279 9.2 99460 45
2012-04-24 11:11 51°17.718 2°59.214 5.8 309 9.1 99460 45
2012-04-24 11:12 51°17.869 2°59.389 5.8 278 9.1 99460 45
2012-04-24 11:13 51°17.994 2°59.61 5.1 278 9.1 99460 43
2012-04-24 11:14 51°18.126 2°59.822 6.5 304 9.1 99460 45
2012-04-24 11:15 51°18.25 3°0.036 5.8 284 9.1 99460 44
2012-04-24 11:16 51°18.367 3°0.272 5 302 9.1 99470 45
2012-04-24 11:17 51°18.481 3°0.505 4.6 307 9.1 99470 45
2012-04-24 11:18 51°18.587 3°0.751 4.9 303 9.1 99470 45
2012-04-24 11:19 51°18.682 3°1.011 1.4 300 9.1 99470 44
2012-04-24 11:20 51°18.783 3°1.268 5.3 307 9.2 99470 45
2012-04-24 11:21 51°18.895 3°1.508 5.3 284 9.1 99470 44
2012-04-24 11:22 51°19.006 3°1.749 4.5 302 9.1 99470 46
2012-04-24 11:23 51°19.124 3°1.979 5.7 305 9.2 99470 46
2012-04-24 11:24 51°19.223 3°2.228 -999 306 9.1 99480 45
2012-04-24 11:25 51°19.303 3°2.497 -999 282 9.1 99480 45
2012-04-24 11:26 51°19.381 3°2.766 -999 282 9.1 99480 45
2012-04-24 11:27 51°19.467 3°3.041 -999 282 9.1 99480 45
2012-04-24 11:28 51°19.575 3°3.286 -999 282 9.1 99470 45
2012-04-24 11:29 51°19.684 3°3.528 -999 282 9.1 99480 45
2012-04-24 11:30 51°19.784 3°3.78 2.6 282 9.1 99480 45
2012-04-24 11:31 51°19.873 3°4.044 3.6 279 9.1 99480 44
2012-04-24 11:32 51°19.974 3°4.297 5.7 284 9.1 99480 45
2012-04-24 11:33 51°20.067 3°4.557 5.3 304 9.1 99480 45
2012-04-24 11:34 51°20.166 3°4.813 6.7 284 9.1 99480 45
2012-04-24 11:35 51°20.261 3°5.072 2.5 309 9.2 99480 46
2012-04-24 11:36 51°20.365 3°5.322 0.5 279 9.1 99480 45
2012-04-24 11:37 51°20.47 3°5.572 -999 306 9.1 99490 45
2012-04-24 11:38 51°20.559 3°5.84 -999 282 9.2 99490 45
2012-04-24 11:39 51°20.647 3°6.109 -999 282 9.2 99490 45
2012-04-24 11:40 51°20.744 3°6.37 -999 282 9.2 99490 45
2012-04-24 11:41 51°20.829 3°6.643 -999 306 9.2 99490 45
2012-04-24 11:42 51°20.907 3°6.925 -999 282 9.2 99490 45
2012-04-24 11:43 51°20.997 3°7.199 0.1 305 9.2 99490 45
2012-04-24 11:44 51°21.103 3°7.457 -999 35 9.2 99490 45
2012-04-24 11:45 51°21.203 3°7.726 0.1 282 9.2 99490 45
2012-04-24 11:46 51°21.292 3°8.01 5.8 280 9.2 99490 46
2012-04-24 11:47 51°21.394 3°8.285 5.9 304 9.3 99490 45
2012-04-24 11:48 51°21.48 3°8.574 5.3 283 9.2 99490 44
2012-04-24 11:49 51°21.569 3°8.862 0.7 286 9.2 99490 46
2012-04-24 11:50 51°21.66 3°9.15 5.8 309 9.3 99490 46
2012-04-24 11:51 51°21.737 3°9.444 5.7 284 9.3 99490 45
2012-04-24 11:52 51°21.798 3°9.762 5.3 301 9.3 99490 46
2012-04-24 11:53 51°21.878 3°10.065 3.1 279 9.3 99480 45
2012-04-24 11:54 51°21.952 3°10.375 5.4 308 9.3 99480 47
2012-04-24 11:55 51°21.994 3°10.704 5.3 279 9.3 99490 45
2012-04-24 11:56 51°22.001 3°11.042 3.6 307 9.3 99490 47
2012-04-24 11:57 51°21.892 3°11.332 -999 282 9.4 99490 47
2012-04-24 11:58 51°21.72 3°11.57 -999 338 9.5 99490 46
2012-04-24 11:59 51°21.546 3°11.765 -999 282 9.6 99500 46
2012-04-24 12:00 51°21.376 3°11.96 -999 343 9.6 99490 46
2012-04-24 12:01 51°21.206 3°12.117 -999 282 9.6 99500 46
2012-04-24 12:02 51°21.033 3°12.246 -999 351 9.6 99500 46
2012-04-24 12:03 51°20.866 3°12.302 -999 359 9.4 99490 46
2012-04-24 12:04 51°20.713 3°12.213 0.1 353 9.2 99490 46
2012-04-24 12:05 51°20.562 3°12.108 -999 348 9.1 99490 46
2012-04-24 12:06 51°20.418 3°11.996 -999 351 9 99480 46
2012-04-24 12:07 51°20.291 3°11.9 -999 354 9 99490 46
2012-04-24 12:08 51°20.185 3°11.82 0.1 351 9.1 99490 47
2012-04-24 12:09 51°20.109 3°11.762 4.8 355 9.1 99490 46
2012-04-24 12:10 51°20.094 3°11.747 -999 7 9.2 99500 46
2012-04-24 12:11 51°20.093 3°11.729 0.1 282 9.2 99490 46
2012-04-24 12:12 51°20.11 3°11.686 3.7 308 9.4 99490 47
2012-04-24 12:13 51°20.137 3°11.664 -999 282 9.6 99490 46
2012-04-24 12:14 51°20.144 3°11.661 3.9 307 9.7 99500 46
2012-04-24 12:15 51°20.144 3°11.66 3.2 280 10 99490 47
2012-04-24 12:16 51°20.144 3°11.66 3.9 308 10.3 99490 46
2012-04-24 12:17 51°20.146 3°11.662 3 285 10.4 99490 45
2012-04-24 12:18 51°20.148 3°11.662 3.7 304 10.5 99490 45
2012-04-24 12:19 51°20.148 3°11.662 2.5 281 10.6 99490 44
2012-04-24 12:20 51°20.148 3°11.662 2.7 308 10.7 99490 46
2012-04-24 12:21 51°20.148 3°11.662 1.6 279 10.8 99490 46
2012-04-24 12:22 51°20.148 3°11.662 3.3 302 10.8 99500 45
2012-04-24 12:23 51°20.148 3°11.662 2.5 285 10.8 99500 45
2012-04-24 12:24 51°20.148 3°11.661 0.1 309 10.8 99500 44
2012-04-24 12:25 51°20.148 3°11.661 -999 306 10.9 99500 44
2012-04-24 12:26 51°20.148 3°11.661 0.1 282 11 99500 44
2012-04-24 12:27 51°20.148 3°11.661 -999 283 11.2 99510 44
2012-04-24 12:28 51°20.148 3°11.661 3.9 307 11.3 99510 43
2012-04-24 12:29 51°20.148 3°11.661 3.9 279 11.3 99500 44
2012-04-24 12:30 51°20.148 3°11.661 0.1 306 11.4 99500 43
2012-04-24 12:31 51°20.149 3°11.661 3.1 285 11.4 99500 44
2012-04-24 12:32 51°20.148 3°11.661 5.4 311 11.5 99510 43
2012-04-24 12:33 51°20.148 3°11.661 3 285 11.5 99500 43
2012-04-24 12:34 51°20.148 3°11.662 0.1 305 11.5 99500 42
2012-04-24 12:35 51°20.148 3°11.662 0.1 282 11.5 99500 43
2012-04-24 12:36 51°20.148 3°11.662 -999 306 11.5 99510 42
2012-04-24 12:37 51°20.148 3°11.662 0.1 282 11.4 99510 43
2012-04-24 12:38 51°20.148 3°11.663 0.1 307 11.5 99500 43
2012-04-24 12:39 51°20.148 3°11.663 -999 78 11.5 99510 42
2012-04-24 12:40 51°20.148 3°11.663 0.1 306 11.5 99510 43
2012-04-24 12:41 51°20.148 3°11.663 0.6 282 11.4 99510 42
2012-04-24 12:42 51°20.148 3°11.663 4.3 280 11.4 99510 42
2012-04-24 12:43 51°20.148 3°11.663 2 309 11.2 99510 41
2012-04-24 12:44 51°20.148 3°11.662 4.6 280 11.2 99520 42
2012-04-24 12:45 51°20.148 3°11.662 2.1 304 11.2 99520 42
2012-04-24 12:46 51°20.148 3°11.662 2.9 280 11.3 99510 42
2012-04-24 12:47 51°20.148 3°11.662 0.9 300 11.4 99510 43
2012-04-24 12:48 51°20.148 3°11.662 4.4 279 11.5 99520 43
2012-04-24 12:49 51°20.148 3°11.662 4.4 310 11.6 99520 42
2012-04-24 12:50 51°20.148 3°11.662 4.3 283 11.6 99510 42
2012-04-24 12:51 51°20.148 3°11.662 3.2 307 11.6 99520 42
2012-04-24 12:52 51°20.148 3°11.662 2.9 307 11.7 99510 42
2012-04-24 12:53 51°20.148 3°11.662 4.1 302 11.6 99520 42
2012-04-24 12:54 51°20.148 3°11.661 3.7 301 11.5 99520 42
2012-04-24 12:55 51°20.148 3°11.661 3.6 302 11.5 99520 42
2012-04-24 12:56 51°20.148 3°11.662 3.8 284 11.4 99520 42
2012-04-24 12:57 51°20.148 3°11.662 3.1 306 11.5 99520 42
2012-04-24 12:58 51°20.148 3°11.662 3.8 303 11.4 99510 42
2012-04-24 12:59 51°20.148 3°11.662 2.8 303 11.4 99520 42
2012-04-24 13:00 51°20.148 3°11.662 4.9 282 11.6 99510 42
2012-04-24 13:01 51°20.148 3°11.662 3 307 11.6 99520 43
2012-04-24 13:02 51°20.148 3°11.661 3.7 279 11.6 99520 43
2012-04-24 13:03 51°20.148 3°11.661 5.5 279 11.6 99520 43
2012-04-24 13:04 51°20.148 3°11.661 2.7 301 11.6 99520 43
2012-04-24 13:05 51°20.148 3°11.661 5 284 11.6 99520 43
2012-04-24 13:06 51°20.148 3°11.661 1.9 302 11.5 99520 42
2012-04-24 13:07 51°20.148 3°11.661 3.1 282 11.5 99530 43
2012-04-24 13:08 51°20.149 3°11.661 4 304 11.4 99520 42
2012-04-24 13:09 51°20.149 3°11.661 4.3 279 11.3 99520 43
2012-04-24 13:10 51°20.149 3°11.661 5.2 309 11.2 99520 42
2012-04-24 13:11 51°20.15 3°11.661 4.7 279 11.3 99520 44
2012-04-24 13:12 51°20.149 3°11.661 4.5 306 11.2 99530 43
2012-04-24 13:13 51°20.149 3°11.661 4.1 280 11.2 99520 43
2012-04-24 13:14 51°20.149 3°11.661 3.7 309 11.3 99520 43
2012-04-24 13:15 51°20.148 3°11.661 4.1 286 11.3 99530 44
2012-04-24 13:16 51°20.148 3°11.661 4 310 11.4 99530 44
2012-04-24 13:17 51°20.148 3°11.661 4.3 282 11.3 99530 43
2012-04-24 13:18 51°20.149 3°11.662 2.7 307 11.3 99540 43
2012-04-24 13:19 51°20.149 3°11.662 2.9 279 11.3 99540 43
2012-04-24 13:20 51°20.149 3°11.662 3.1 307 11.4 99540 43
2012-04-24 13:21 51°20.149 3°11.663 2.4 309 11.3 99540 42
2012-04-24 13:22 51°20.148 3°11.662 2 302 11.3 99540 44
2012-04-24 13:23 51°20.148 3°11.662 2.8 284 11.3 99540 43
2012-04-24 13:24 51°20.148 3°11.661 2 306 11.1 99540 43
2012-04-24 13:25 51°20.148 3°11.661 4.3 278 11.1 99540 43
2012-04-24 13:26 51°20.148 3°11.661 3 303 11.1 99540 44
2012-04-24 13:27 51°20.148 3°11.661 3.2 286 11.1 99540 44
2012-04-24 13:28 51°20.148 3°11.661 3.3 304 11.1 99540 43
2012-04-24 13:29 51°20.148 3°11.662 3.9 280 11.1 99540 43
2012-04-24 13:30 51°20.148 3°11.662 2.9 308 11.1 99540 44
2012-04-24 13:31 51°20.147 3°11.662 3.6 283 11.1 99550 43
2012-04-24 13:32 51°20.147 3°11.662 1.7 311 11.1 99550 44
2012-04-24 13:33 51°20.147 3°11.662 2.8 284 11.1 99550 44
2012-04-24 13:34 51°20.147 3°11.662 2.3 303 11.2 99540 44
2012-04-24 13:35 51°20.148 3°11.662 4.3 282 11.3 99550 43
2012-04-24 13:36 51°20.148 3°11.662 2.9 284 11.3 99550 43
2012-04-24 13:37 51°20.148 3°11.662 4.6 306 11.3 99550 45
2012-04-24 13:38 51°20.148 3°11.662 2.8 278 11.2 99550 43
2012-04-24 13:39 51°20.148 3°11.663 3.1 301 11.2 99550 44
2012-04-24 13:40 51°20.148 3°11.663 2.4 76 11.2 99560 45
2012-04-24 13:41 51°20.148 3°11.662 3 308 11.2 99560 44
2012-04-24 13:42 51°20.148 3°11.663 5.1 281 11.1 99560 45
2012-04-24 13:43 51°20.148 3°11.663 4.4 309 11 99550 44
2012-04-24 13:44 51°20.148 3°11.663 4.3 285 10.9 99560 44
2012-04-24 13:45 51°20.148 3°11.662 2.2 307 10.8 99560 45
2012-04-24 13:46 51°20.148 3°11.662 3 256 10.9 99560 45
2012-04-24 13:47 51°20.148 3°11.661 0.1 269 11 99560 46
2012-04-24 13:48 51°20.148 3°11.661 3.1 263 11.1 99560 46
2012-04-24 13:49 51°20.147 3°11.661 2.8 262 11.2 99550 46
2012-04-24 13:50 51°20.147 3°11.661 2.6 261 11.2 99560 45
2012-04-24 13:51 51°20.148 3°11.661 2.7 305 11.1 99560 46
2012-04-24 13:52 51°20.147 3°11.661 3.9 257 11 99550 45
2012-04-24 13:53 51°20.148 3°11.662 4.4 255 11.1 99560 45
2012-04-24 13:54 51°20.148 3°11.662 3.2 265 11.2 99560 46
2012-04-24 13:55 51°20.148 3°11.662 3 308 11.1 99560 46
2012-04-24 13:56 51°20.148 3°11.662 3.2 265 11.2 99560 45
2012-04-24 13:57 51°20.148 3°11.661 3.2 304 11.2 99560 45
2012-04-24 13:58 51°20.148 3°11.662 4.3 264 11.1 99560 44
2012-04-24 13:59 51°20.148 3°11.662 3.5 264 11 99560 44
2012-04-24 14:00 51°20.148 3°11.662 4.3 285 10.9 99560 45
2012-04-24 14:01 51°20.148 3°11.662 4.5 255 10.9 99560 46
2012-04-24 14:02 51°20.147 3°11.662 4.6 281 10.9 99570 46
2012-04-24 14:03 51°20.147 3°11.662 4.3 307 10.9 99560 45
2012-04-24 14:04 51°20.147 3°11.661 4.8 264 10.9 99570 45
2012-04-24 14:05 51°20.147 3°11.661 2.8 304 10.9 99570 45
2012-04-24 14:06 51°20.148 3°11.662 2.8 253 10.9 99570 46
2012-04-24 14:07 51°20.147 3°11.661 3.3 265 11 99570 46
2012-04-24 14:08 51°20.148 3°11.662 3.8 260 10.9 99570 46
2012-04-24 14:09 51°20.148 3°11.661 4 310 10.9 99570 46
2012-04-24 14:10 51°20.147 3°11.661 5.4 254 10.9 99560 45
2012-04-24 14:11 51°20.148 3°11.663 3.8 257 11 99570 46
2012-04-24 14:12 51°20.148 3°11.663 4.3 262 11 99570 46
2012-04-24 14:13 51°20.149 3°11.663 3.2 266 11 99570 46
2012-04-24 14:14 51°20.149 3°11.662 2.9 269 11.1 99570 46
2012-04-24 14:15 51°20.149 3°11.662 3.1 266 11.1 99570 46
2012-04-24 14:16 51°20.148 3°11.662 3.3 260 11.1 99570 46
2012-04-24 14:17 51°20.148 3°11.662 3.3 264 11.1 99570 46
2012-04-24 14:18 51°20.148 3°11.661 5.5 261 11.1 99570 45
2012-04-24 14:19 51°20.149 3°11.662 3.9 249 11 99570 46
2012-04-24 14:20 51°20.149 3°11.661 4 261 11 99570 46
2012-04-24 14:21 51°20.149 3°11.662 3.4 264 11 99570 46
2012-04-24 14:22 51°20.15 3°11.662 4.1 254 11.1 99570 46
2012-04-24 14:23 51°20.148 3°11.662 3.6 260 11 99570 46
2012-04-24 14:24 51°20.149 3°11.662 4 254 11 99570 47
2012-04-24 14:25 51°20.147 3°11.662 3 263 11.1 99570 46
2012-04-24 14:26 51°20.146 3°11.662 4.6 248 11.2 99580 47
2012-04-24 14:27 51°20.147 3°11.662 4.6 256 11.4 99580 47
2012-04-24 14:28 51°20.147 3°11.661 3.7 248 11.4 99580 45
2012-04-24 14:29 51°20.147 3°11.662 3.8 252 11.3 99590 46
2012-04-24 14:30 51°20.148 3°11.661 4.8 255 11.3 99580 46
2012-04-24 14:31 51°20.148 3°11.662 4.9 254 11.3 99580 46
2012-04-24 14:32 51°20.148 3°11.662 3.7 261 11.4 99590 47
2012-04-24 14:33 51°20.145 3°11.663 3.8 263 11.5 99590 46
2012-04-24 14:34 51°20.149 3°11.671 3.1 263 11.4 99590 46
2012-04-24 14:35 51°20.166 3°11.685 3.7 249 11.3 99590 45
2012-04-24 14:36 51°20.205 3°11.711 3.5 303 11.3 99590 46
2012-04-24 14:37 51°20.281 3°11.762 5.9 244 11.3 99590 45
2012-04-24 14:38 51°20.38 3°11.874 3.8 309 11.2 99590 47
2012-04-24 14:39 51°20.48 3°12.052 5.6 247 11.3 99600 46
2012-04-24 14:40 51°20.582 3°12.247 3.8 259 11.3 99590 46
2012-04-24 14:41 51°20.7 3°12.406 7.7 284 11.2 99590 46
2012-04-24 14:42 51°20.859 3°12.427 8.4 31 11.1 99580 45
2012-04-24 14:43 51°21.002 3°12.346 9.4 279 10.9 99570 45
2012-04-24 14:44 51°21.138 3°12.219 9.7 35 10.6 99580 47
2012-04-24 14:45 51°21.273 3°12.075 9.6 303 10.5 99570 47
2012-04-24 14:46 51°21.404 3°11.938 9.5 281 10.3 99580 47
2012-04-24 14:47 51°21.535 3°11.819 7.9 316 10.1 99580 48
2012-04-24 14:48 51°21.678 3°11.688 11.3 285 10.1 99580 47
2012-04-24 14:49 51°21.841 3°11.512 9.7 321 10.1 99580 48
2012-04-24 14:50 51°22.004 3°11.355 11.6 283 10.1 99590 48
2012-04-24 14:51 51°22.151 3°11.181 10.4 331 10.1 99590 48
2012-04-24 14:52 51°22.222 3°10.933 11.8 287 10 99590 48
2012-04-24 14:53 51°22.212 3°10.655 9.8 341 10 99610 49
2012-04-24 14:54 51°22.136 3°10.413 8.8 280 9.8 99600 47
2012-04-24 14:55 51°22.045 3°10.175 10.4 348 9.6 99600 48
2012-04-24 14:56 51°21.979 3°9.928 8.3 339 9.5 99600 49
2012-04-24 14:57 51°22.02 3°9.829 7.1 304 9.5 99620 49
2012-04-24 14:58 51°22.062 3°9.843 5.9 279 9.5 99610 49
2012-04-24 14:59 51°22.084 3°9.888 5.9 281 9.6 99620 49
2012-04-24 15:00 51°22.102 3°9.936 5.6 303 9.7 99620 49
2012-04-24 15:01 51°22.117 3°9.983 6.2 279 9.7 99620 49
2012-04-24 15:02 51°22.134 3°10.032 6.5 305 9.8 99630 48
2012-04-24 15:03 51°22.178 3°10.053 7 280 9.8 99610 49
2012-04-24 15:04 51°22.19 3°10.004 7.1 355 9.7 99620 48
2012-04-24 15:05 51°22.107 3°9.828 8.4 278 9.5 99610 48
2012-04-24 15:06 51°21.99 3°9.608 11.4 349 9.4 99610 49
2012-04-24 15:07 51°21.902 3°9.361 11.4 349 9.2 99610 48
2012-04-24 15:08 51°21.794 3°9.135 8.1 350 9.2 99610 50
2012-04-24 15:09 51°21.694 3°8.899 10 350 9.1 99610 49
2012-04-24 15:10 51°21.594 3°8.67 9.4 350 9.1 99610 49
2012-04-24 15:11 51°21.489 3°8.435 11.3 281 9.1 99620 49
2012-04-24 15:12 51°21.402 3°8.194 11.4 347 9.1 99620 48
2012-04-24 15:13 51°21.309 3°7.945 11.1 348 9.1 99610 48
2012-04-24 15:14 51°21.201 3°7.72 8.7 353 9.1 99620 48
2012-04-24 15:15 51°21.092 3°7.494 12.5 347 9.1 99620 49
2012-04-24 15:16 51°20.988 3°7.263 11.7 352 9.1 99620 48
2012-04-24 15:17 51°20.887 3°7.037 8.9 280 9.1 99630 49
2012-04-24 15:18 51°20.797 3°6.787 10.4 348 9.1 99630 49
2012-04-24 15:19 51°20.708 3°6.549 12.2 349 9.1 99630 49
2012-04-24 15:20 51°20.605 3°6.313 10.7 350 9.1 99620 49
2012-04-24 15:21 51°20.5 3°6.089 12.1 352 9.1 99630 48
2012-04-24 15:22 51°20.386 3°5.863 9.2 349 9.1 99630 49
2012-04-24 15:23 51°20.282 3°5.632 8.4 279 9.1 99630 49
2012-04-24 15:24 51°20.193 3°5.385 12 346 9.1 99630 49
2012-04-24 15:25 51°20.101 3°5.139 9.8 350 9.1 99620 49
2012-04-24 15:26 51°19.989 3°4.913 9.7 349 9.1 99630 49
2012-04-24 15:27 51°19.876 3°4.683 8.7 348 9.1 99630 48
2012-04-24 15:28 51°19.774 3°4.447 8.3 349 9.1 99630 49
2012-04-24 15:29 51°19.678 3°4.195 10.1 279 9.1 99640 49
2012-04-24 15:30 51°19.586 3°3.949 10.3 352 9.1 99640 49
2012-04-24 15:31 51°19.487 3°3.701 9.6 350 9.1 99640 50
2012-04-24 15:32 51°19.372 3°3.477 9.8 349 9 99640 48
2012-04-24 15:33 51°19.275 3°3.232 13.4 352 8.9 99640 49
2012-04-24 15:34 51°19.155 3°3.013 9.8 351 8.9 99650 50
2012-04-24 15:35 51°19.037 3°2.798 8.1 354 8.8 99630 48
2012-04-24 15:36 51°18.919 3°2.568 10.8 350 8.9 99650 48
2012-04-24 15:37 51°18.809 3°2.339 10.2 352 8.8 99640 48
2012-04-24 15:38 51°18.694 3°2.105 10 351 8.7 99650 48
2012-04-24 15:39 51°18.576 3°1.886 12.6 351 8.8 99650 47
2012-04-24 15:40 51°18.464 3°1.651 9 351 8.7 99650 48
2012-04-24 15:41 51°18.369 3°1.408 12.5 350 8.7 99660 48
2012-04-24 15:42 51°18.265 3°1.167 10.9 349 8.8 99660 47
2012-04-24 15:43 51°18.157 3°0.934 10.6 351 8.8 99660 48
2012-04-24 15:44 51°18.054 3°0.693 12.4 351 8.9 99660 48
2012-04-24 15:45 51°17.942 3°0.462 12.6 351 8.9 99660 48
2012-04-24 15:46 51°17.828 3°0.244 9.9 350 8.9 99660 47
2012-04-24 15:47 51°17.709 3°0.017 9.4 352 8.8 99660 47
2012-04-24 15:48 51°17.605 2°59.786 9.7 348 8.9 99670 48
2012-04-24 15:49 51°17.504 2°59.544 9.4 351 8.8 99670 48
2012-04-24 15:50 51°17.394 2°59.316 11 353 8.8 99660 48
2012-04-24 15:51 51°17.287 2°59.086 12.9 349 8.8 99670 48
2012-04-24 15:52 51°17.179 2°58.858 9.6 351 8.8 99670 48
2012-04-24 15:53 51°17.065 2°58.646 9.2 354 8.8 99680 48
2012-04-24 15:54 51°16.953 2°58.421 9.9 348 8.8 99670 47
2012-04-24 15:55 51°16.87 2°58.174 10.2 349 8.8 99680 48
2012-04-24 15:56 51°16.772 2°57.934 12.6 352 8.8 99670 49
2012-04-24 15:57 51°16.665 2°57.702 10 349 8.7 99680 48
2012-04-24 15:58 51°16.559 2°57.461 10.4 349 8.7 99670 48
2012-04-24 15:59 51°16.454 2°57.223 9.8 349 8.8 99680 48
2012-04-24 16:00 51°16.344 2°56.991 10.4 351 8.7 99680 48
2012-04-24 16:01 51°16.223 2°56.778 12.7 349 8.8 99690 48
2012-04-24 16:02 51°16.111 2°56.552 11.8 347 8.7 99690 48
2012-04-24 16:03 51°16.005 2°56.315 11.7 351 8.7 99690 47
2012-04-24 16:04 51°15.906 2°56.075 11 351 8.8 99690 47
2012-04-24 16:05 51°15.797 2°55.842 11.9 354 8.8 99700 48
2012-04-24 16:06 51°15.658 2°55.65 8.7 355 8.8 99700 48
2012-04-24 16:07 51°15.519 2°55.451 11.8 355 8.8 99700 47
2012-04-24 16:08 51°15.372 2°55.276 12 354 8.8 99700 47
2012-04-24 16:09 51°15.214 2°55.141 7.5 2 8.7 99710 48
2012-04-24 16:10 51°15.037 2°55.032 8.1 -999 8.8 99710 47
2012-04-24 16:11 51°14.864 2°54.94 7.5 6 8.8 99710 48
2012-04-24 16:12 51°14.676 2°54.976 5.5 12 8.7 99730 49
2012-04-24 16:13 51°14.49 2°55.066 5.1 22 8.8 99730 46
2012-04-24 16:14 51°14.321 2°55.228 5.2 25 8.8 99740 47
2012-04-24 16:15 51°14.183 2°55.367 3.7 30 8.8 99740 47
2012-04-24 16:16 51°14.069 2°55.464 4.7 30 8.9 99740 47
2012-04-24 16:17 51°13.967 2°55.532 3.2 356 8.9 99750 49
2012-04-24 16:18 51°13.869 2°55.601 2.7 23 8.9 99740 48
2012-04-24 16:19 51°13.778 2°55.677 0.1 78 8.9 99750 48
2012-04-24 16:20 51°13.713 2°55.789 0.3 51 8.9 99750 48
2012-04-24 16:21 51°13.664 2°55.899 2.5 52 9.1 99750 46
2012-04-24 16:22 51°13.642 2°55.984 1.8 56 9.2 99760 47